Simultaneous Nadir Overpasses (SNOs) Predictions

Prediction of SNOs between GOES-16 and FY3D Satellite Orbit:

Table of predicted SNOs for the next 14.0 days since TLE Epoch: 11/30/2019
Index Date Time (GOES-16) GOES-16 Lat,Lon FY3D Lat,Lon Distance(km) Time Diff (sec)
1 11/30/2019 18:47:08 -0.00, -75.22 -0.89, -79.06 438.93 80
2 12/01/2019 18:25:33 0.00, -75.23 0.19, -74.50 83.14 80
3 12/04/2019 06:28:09 -0.01, -75.25 -0.02, -75.12 13.99 80
4 12/06/2019 18:33:33 0.01, -75.29 -0.12, -75.78 57.08 80
5 12/07/2019 18:11:59 0.02, -75.31 0.96, -71.22 466.17 80
6 12/09/2019 06:36:10 -0.01, -75.33 0.23, -76.42 124.16 80
7 12/10/2019 06:14:34 -0.01, -75.35 -0.79, -71.85 399.19 80
8 12/11/2019 18:38:54 -0.00, -75.38 -0.37, -77.08 193.62 80
9 12/12/2019 18:17:18 0.00, -75.40 0.66, -72.51 329.82 80




NCC Satellite Simultaneous Nadir Overpasses (SNOs) Prediction Service
